Lexington Weather

Lexington, Massachusetts, USA

32°F
11/15/2019 2:47am 
  • Lexington Conditions: Mostly cloudy
  • Temperature: 32.2°F / 0.1°CWarmer 1.5°F than last hour.
  • Dew Point: 29.7°FIncreased 1.5°Fsince last hour.
  • Relative Humidity: 90
  • Wind: Calm, 10-min avg: Calm, gust: 3 mph
  • Barometer: 30.18 inFalling 0.02  inHg/hr Falling Slowly
  • Visibility: 10 miles
  • Snow Today: 0.0 in
  •   

Regional Weather Roundup
for Boston / Norton, MA

        
000
ASUS41 KBOX 121710
RWRBOX

REGIONAL WEATHER ROUNDUP
NATIONAL WEATHER SERVICE BOSTON/NORTON MA
1200 PM EST TUE NOV 12 2019

NOTE:  "FAIR" INDICATES FEW OR NO CLOUDS BELOW 12,000 FEET WITH NO 
SIGNIFICANT WEATHER AND/OR OBSTRUCTIONS TO VISIBILITY.

MAZALL-121800-
EASTERN MASSACHUSETTS
  
CITY           SKY/WX    TMP DP  RH WIND       PRES   REMARKS
BOSTON         LGT RAIN  42  37  82 NW9       29.71S                  
BEVERLY        LGT RAIN  38  36  92 NW8       29.70R                  
LAWRENCE       LGT RAIN  36  34  92 W14G20    29.73S WCI  27          
BEDFORD        LGT RAIN  39  36  89 NW6       29.71S FOG              
BLUE HILL        N/A     38  38 100 W9G18     29.69  WCI  31          
NORWOOD        LGT RAIN  44  38  79 W6        29.72S                  
MARSHFIELD     DRIZZLE   46  43  87 NW9       29.69R                  
PLYMOUTH       LGT RAIN  47  44  90 NW14      29.69R                  
TAUNTON        LGT RAIN  47  40  76 NW7       29.70R                  
NEW BEDFORD    LGT RAIN  56  48  74 W13G18    29.68R                  
$$

MAZALL-121800-
CAPE COD AND THE ISLANDS
  
CITY           SKY/WX    TMP DP  RH WIND       PRES   REMARKS
FALMOUTH       MOSUNNY   57  48  72 W15G25    29.67F                  
HYANNIS        LGT RAIN  58  49  72 SW16G29   29.66F                  
CHATHAM        FAIR      57  51  80 SW8G16    29.68F                  
PROVINCETOWN   LGT RAIN  45  44  97 NW20G32   29.69R FOG              
NANTUCKET      FAIR      60  52  74 SW17G25   29.68F                  
MARTHAS VNYRD  LGT RAIN  58  50  75 W13       29.67F                  
$$
 
MAZALL-121800-
CENTRAL AND WESTERN MASSACHUSETTS
  
CITY           SKY/WX    TMP DP  RH WIND       PRES   REMARKS
WORCESTER      LGT SNOW  33  31  92 W14       29.72R FOG     WCI  23  
FITCHBURG      FLURRIES  36  29  75 NW18      29.75R WCI  26          
ORANGE         CLOUDY    34  27  75 W9        29.78R WCI  27          
SPRINGFIELD    CLOUDY    35  26  72 W15       29.80R WCI  25          
WESTFIELD      CLOUDY    31  23  72 NW18G25   29.83R WCI  19          
NORTH ADAMS    CLOUDY    24  19  81 W9        29.86R WCI  14          
PITTSFIELD     CLOUDY    22  17  81 NW18G25   29.81R WCI   7          
$$
 
RIZALL-121800-
RHODE ISLAND
  
CITY           SKY/WX    TMP DP  RH WIND       PRES   REMARKS
PROVIDENCE     LGT RAIN  47  43  86 NW14      29.72R FOG              
NEWPORT        LGT RAIN  51  43  74 NW10G20   29.70R                  
BLOCK ISLAND   LGT RAIN  48  44  86 NW12G21   29.73R                  
SMITHFIELD     LGT RAIN  40  39  97 W9        29.73R                  
WESTERLY       LGT RAIN  47  41  80 NW12G17   29.74R                  
$$
 
CTZALL-121800-
CONNECTICUT
  
CITY           SKY/WX    TMP DP  RH WIND       PRES   REMARKS
BRADLEY INTL   CLOUDY    35  25  66 NW16      29.83R WCI  25          
HARTFORD       CLOUDY    36  27  69 NW13G22   29.84R WCI  27          
BRIDGEPORT     LGT RAIN  39  33  79 NW14G20   29.84R WCI  31          
DANBURY        CLOUDY    35  29  78 NW10G16   29.86R WCI  27          
GROTON         LGT RAIN  42  38  85 NW22G30   29.76R                  
NEW HAVEN      CLOUDY    41  31  67 NW13G25   29.83R                  
CHESTER        LGT RAIN  37  34  87 NW10G17   29.79R WCI  30          
MERIDEN        CLOUDY    36  29  75 NW9G18    29.83R WCI  29          
WILLIMANTIC    LGT RAIN  37  34  89 W13       29.81R WCI  29          
OXFORD         CLOUDY    33  25  72 NW12G17   29.82R WCI  24          
$$

MEZ002-015-021-024-NHZ003-005-008-011-012-014-VTZ005-008-121800-
NORTHERN NEW ENGLAND
  
CITY           SKY/WX    TMP DP  RH WIND       PRES   REMARKS
PORTLAND ME    CLOUDY    33  29  85 W3        29.67F                  
BANGOR ME      FRZ RAIN  29  28  96 CALM      29.65F FOG              
CONCORD NH     LGT SNOW  33  30  88 NW13      29.72S FOG     WCI  24  
MANCHESTER NH  FLURRIES  36  29  75 W10       29.72R WCI  28          
NASHUA NH      FLURRIES  36  34  93 NW16G23   29.75R WCI  26          
PORTSMOUTH NH  LGT RAIN  36  35  97 W7        29.68S FOG     WCI  30  
JAFFREY NH     CLOUDY    30  22  72 W15G23    29.74R WCI  19          
KEENE NH       FLURRIES  28  23  81 N9G18     29.80R WCI  19          
BURLINGTON VT  FLURRIES  24  15  68 NW13      29.89S WCI  12          
MT. WASHINGTON BLWGSNOW  16  16 100 W52         N/A  VSB 1/16WCI  -9  
$$

NYZ052-076-121800-
EASTERN NEW YORK
  
CITY           SKY/WX    TMP DP  RH WIND       PRES   REMARKS
ALBANY         PTSUNNY   26  16  65 W18G31    29.94R WCI  13          
NEW YORK CITY  CLOUDY    38  28  67 NW25G32   29.87R WCI  27          
$$
 
ANZALL-121800-
MARINE OBSERVATIONS
  
STATION/POSITION TIME  TEMP    WIND        PRES    VSBY  WAVE
                       AIR SEA DIR/SP/G                  HT/PER
                 (UTC) (F)     (DEG/KT/KT) (MB)    (MI)  (FT/S)
BOSTON BUOY      1650   42 53  300/ 17/ 21 1004.5R         4/10
BUZZARDS BAY     1600   57     250/ 23/ 25 1005.6S
NANTUCKET SOUND  1640      54                N/A           2/ 4
MASS BAY-STELLWA 1604   40 53  310/ 17/ 21 1004.4    5/8   4/ 6
ISLE OF SHOALS   1600   35     310/ 12/ 14 1005.0F
S OF BLOCK IS    1630      58                N/A           8/ 8
$$

......................KEY.........................
  SKY/WX - SKY CONDITION/PRESENT WEATHER
  TMP    - TEMPERATURE IN FAHRENHEIT
  DWPT   - DEWPOINT IN FAHRENHEIT
  RH     - RELATIVE HUMIDITY IN PERCENT
  WIND   - DIRECTION AND SPEED IN MPH
  PRES   - MEAN SEA LEVEL PRESSURE IN INCHES OF HG
  WCI    - WIND CHILL INDEX
  VSB    - VISIBILITY IN MILES
  HX     - HEAT INDEX
  TC     - TEMPERATURE IN CELSIUS
  VRB    - VARIABLE WIND DIRECTION
  N/A    - NOT AVAILABLE
  
      

Other recent Regional Weather Roundups

Fri Nov 15, 2:10am

Fri Nov 15, 2:00am

Fri Nov 15, 1:10am

Fri Nov 15, 1:00am

Fri Nov 15, 12:10am

Fri Nov 15, 12:00am

Thu Nov 14, 11:10pm

Thu Nov 14, 11:00pm

Thu Nov 14, 10:10pm

Thu Nov 14, 10:00pm

Thu Nov 14, 9:10pm

Thu Nov 14, 9:00pm

Thu Nov 14, 8:10pm

Thu Nov 14, 8:00pm

Thu Nov 14, 7:10pm

Thu Nov 14, 7:00pm

Thu Nov 14, 6:10pm

Thu Nov 14, 6:01pm

Thu Nov 14, 5:10pm

Thu Nov 14, 5:00pm

Thu Nov 14, 4:10pm

Thu Nov 14, 4:00pm

Thu Nov 14, 3:10pm

Thu Nov 14, 3:00pm

Thu Nov 14, 2:10pm

Thu Nov 14, 2:00pm

Thu Nov 14, 1:10pm

Thu Nov 14, 1:00pm

Thu Nov 14, 12:10pm

Thu Nov 14, 12:01pm

Thu Nov 14, 11:10am

Thu Nov 14, 11:00am

Thu Nov 14, 10:10am

Thu Nov 14, 10:01am

Thu Nov 14, 9:10am

Thu Nov 14, 9:00am

Thu Nov 14, 8:10am

Thu Nov 14, 8:00am

Thu Nov 14, 7:10am

Thu Nov 14, 7:00am

Thu Nov 14, 6:10am

Thu Nov 14, 6:00am

Thu Nov 14, 5:10am

Thu Nov 14, 5:00am

Thu Nov 14, 4:10am

Thu Nov 14, 4:00am

Thu Nov 14, 3:10am

Thu Nov 14, 3:00am

Thu Nov 14, 2:10am

Thu Nov 14, 2:00am

Thu Nov 14, 1:10am

Thu Nov 14, 1:00am

Thu Nov 14, 12:10am

Thu Nov 14, 12:00am

Wed Nov 13, 11:10pm

Wed Nov 13, 11:00pm

Wed Nov 13, 10:10pm

Wed Nov 13, 10:00pm

Wed Nov 13, 9:10pm

Wed Nov 13, 9:00pm

Wed Nov 13, 8:10pm

Wed Nov 13, 8:00pm

Wed Nov 13, 7:10pm

Wed Nov 13, 7:00pm

Wed Nov 13, 6:10pm

Wed Nov 13, 6:01pm

Wed Nov 13, 5:10pm

Wed Nov 13, 5:00pm

Wed Nov 13, 4:10pm

Wed Nov 13, 4:00pm

Wed Nov 13, 3:10pm

Wed Nov 13, 3:01pm

Wed Nov 13, 2:10pm

Wed Nov 13, 2:01pm

Wed Nov 13, 1:10pm

Wed Nov 13, 1:00pm

Wed Nov 13, 12:10pm

Wed Nov 13, 12:01pm

Wed Nov 13, 11:10am

Wed Nov 13, 11:00am

Wed Nov 13, 10:10am

Wed Nov 13, 10:00am

Wed Nov 13, 9:10am

Wed Nov 13, 9:00am

Wed Nov 13, 8:10am

Wed Nov 13, 8:00am

Wed Nov 13, 7:10am

Wed Nov 13, 7:00am

Wed Nov 13, 6:10am

Wed Nov 13, 6:00am

Wed Nov 13, 5:10am

Wed Nov 13, 5:00am

Wed Nov 13, 4:10am

Wed Nov 13, 4:00am

Wed Nov 13, 3:10am

Wed Nov 13, 3:00am

Wed Nov 13, 2:10am

Wed Nov 13, 2:00am

Wed Nov 13, 1:10am

Wed Nov 13, 1:00am

Wed Nov 13, 12:10am

Wed Nov 13, 12:00am

Tue Nov 12, 11:10pm

Tue Nov 12, 11:00pm

Tue Nov 12, 10:10pm

Tue Nov 12, 10:00pm

Tue Nov 12, 9:10pm

Tue Nov 12, 9:00pm

Tue Nov 12, 8:10pm

Tue Nov 12, 8:00pm

Tue Nov 12, 7:10pm

Tue Nov 12, 7:01pm

Tue Nov 12, 6:10pm

Tue Nov 12, 6:01pm

Tue Nov 12, 5:10pm

Tue Nov 12, 5:01pm

Tue Nov 12, 4:10pm

Tue Nov 12, 4:01pm

Tue Nov 12, 3:10pm

Tue Nov 12, 3:00pm

Tue Nov 12, 2:10pm

Tue Nov 12, 2:00pm

Tue Nov 12, 1:10pm

Tue Nov 12, 1:00pm

Tue Nov 12, 12:00pm

Tue Nov 12, 11:10am

Tue Nov 12, 11:00am

Tue Nov 12, 10:10am

Tue Nov 12, 10:01am

Tue Nov 12, 9:10am

Tue Nov 12, 9:00am

Tue Nov 12, 8:10am

Tue Nov 12, 8:00am

Tue Nov 12, 7:10am

Tue Nov 12, 7:00am

Tue Nov 12, 6:10am

Tue Nov 12, 6:00am

Tue Nov 12, 5:10am

Tue Nov 12, 5:01am

Tue Nov 12, 4:10am

Tue Nov 12, 4:00am

Tue Nov 12, 3:10am

Tue Nov 12, 3:01am

Meta data:

ID: 78e525ea-f0c1-47ac-8251-8079ef5ef076
Link: https://api.weather.gov/products/78e525ea-f0c1-47ac-8251-8079ef5ef076